{"data":{"norad_id":67232,"epoch":"2026-09-20T06:23:03.590592Z","epoch_age_seconds":126268,"freshness":"FRESH","line1":"1 67232U 25309A   26263.26601378  .00002219  00000+0  12008-3 0  9998","line2":"2 67232  52.9962 256.0100 0012243  68.0939 292.1355 15.18918158 41049","mean_motion":15.18918158,"eccentricity":0.0012243,"inclination_deg":52.9962,"raan_deg":256.01,"arg_perigee_deg":68.0939,"mean_anomaly_deg":292.1355,"bstar":0.00012008,"rev_number":4104,"period_min":94.804317955886,"perigee_km":500.67689013526,"apogee_km":517.54100055703,"semimajor_km":6887.2459453461,"source":"CELESTRAK","updated_at":"2026-09-21T09:00:16.507368Z"}}